AAL207 KLAS-KSFO

Flight info

Callsign AAL207
Flight time 1h 3m
Altitude 38000
Route JOHKR5 KENNO RUSME DYAMD5
Aircraft B738/M-SDE2E3FGHIRWXY/LB1

Departure

Time 2026-05-07 19:39
Airport Harry Reid International Airport (KLAS)

Arrival

Time 2026-05-07 20:43
Airport San Francisco International Airport (KSFO)
Time Latitude Longitude Altitude Speed Heading
2026-05-07 19:08 36.08074 -115.13850 2189 ft 0 kts 314°
2026-05-07 19:30 36.08066 -115.13839 2189 ft 2 kts 314°
2026-05-07 19:30 36.08053 -115.13823 2189 ft 3 kts 314°
2026-05-07 19:30 36.08039 -115.13805 2189 ft 3 kts 310°
2026-05-07 19:31 36.08029 -115.13784 2189 ft 3 kts 290°
2026-05-07 19:31 36.08025 -115.13759 2189 ft 3 kts 270°
2026-05-07 19:31 36.08028 -115.13734 2189 ft 3 kts 251°
2026-05-07 19:31 36.08038 -115.13711 2189 ft 3 kts 234°
2026-05-07 19:32 36.08048 -115.13697 2189 ft 0 kts 224°
2026-05-07 19:33 36.08046 -115.13699 2189 ft 3 kts 223°
2026-05-07 19:33 36.08004 -115.13719 2189 ft 3 kts 154°
2026-05-07 19:34 36.07980 -115.13693 2189 ft 14 kts 138°
2026-05-07 19:34 36.07880 -115.13569 2189 ft 21 kts 134°
2026-05-07 19:34 36.07831 -115.13432 2189 ft 15 kts 96°
2026-05-07 19:35 36.07829 -115.13302 2189 ft 14 kts 90°
2026-05-07 19:35 36.07828 -115.13172 2189 ft 17 kts 89°
2026-05-07 19:35 36.07831 -115.13019 2189 ft 19 kts 92°
2026-05-07 19:35 36.07828 -115.12859 2189 ft 19 kts 90°
2026-05-07 19:36 36.07829 -115.12700 2189 ft 18 kts 91°
2026-05-07 19:36 36.07828 -115.12569 2189 ft 13 kts 89°
2026-05-07 19:36 36.07829 -115.12438 2189 ft 19 kts 89°
2026-05-07 19:36 36.07826 -115.12277 2189 ft 14 kts 111°
2026-05-07 19:37 36.07782 -115.12198 2189 ft 10 kts 129°
2026-05-07 19:37 36.07701 -115.12123 2189 ft 18 kts 173°
2026-05-07 19:37 36.07644 -115.12174 2189 ft 0 kts 266°
2026-05-07 19:38 36.07644 -115.12175 2189 ft 0 kts 266°
2026-05-07 19:38 36.07643 -115.12192 2189 ft 10 kts 264°
2026-05-07 19:38 36.07640 -115.12556 2189 ft 79 kts 270°
2026-05-07 19:39 36.07638 -115.13524 2189 ft 144 kts 270°
2026-05-07 19:39 36.07644 -115.14957 2406 ft 183 kts 270°
2026-05-07 19:39 36.07661 -115.16647 2966 ft 209 kts 271°
2026-05-07 19:39 36.07682 -115.17857 3486 ft 213 kts 271°
2026-05-07 19:40 36.07748 -115.19707 4361 ft 214 kts 272°
2026-05-07 19:40 36.07810 -115.21535 5139 ft 218 kts 271°
2026-05-07 19:40 36.07637 -115.23414 5928 ft 222 kts 256°
2026-05-07 19:40 36.06884 -115.25174 6347 ft 248 kts 229°
2026-05-07 19:41 36.05437 -115.26492 6800 ft 270 kts 208°
2026-05-07 19:41 36.03667 -115.27448 7491 ft 282 kts 202°
2026-05-07 19:41 36.01833 -115.28291 8312 ft 288 kts 200°
2026-05-07 19:41 35.99921 -115.29112 9163 ft 292 kts 201°
2026-05-07 19:42 35.98047 -115.30130 10007 ft 297 kts 207°
2026-05-07 19:42 35.96198 -115.31345 10733 ft 307 kts 210°
2026-05-07 19:42 35.94243 -115.32644 11137 ft 330 kts 209°
2026-05-07 19:42 35.92161 -115.34014 11659 ft 345 kts 208°
2026-05-07 19:43 35.90167 -115.35702 12377 ft 351 kts 224°
2026-05-07 19:43 35.88730 -115.38086 13160 ft 353 kts 244°
2026-05-07 19:43 35.87991 -115.40966 13969 ft 354 kts 264°
2026-05-07 19:43 35.88059 -115.43983 14780 ft 353 kts 283°
2026-05-07 19:44 35.88687 -115.46919 15544 ft 357 kts 286°
2026-05-07 19:44 35.88992 -115.49984 16281 ft 365 kts 273°
2026-05-07 19:44 35.88923 -115.53134 17047 ft 369 kts 271°
2026-05-07 19:44 35.88869 -115.56309 17761 ft 373 kts 271°
2026-05-07 19:45 35.88882 -115.59519 18449 ft 376 kts 274°
2026-05-07 19:45 35.88969 -115.62752 19147 ft 379 kts 275°
2026-05-07 19:45 35.89051 -115.66023 19843 ft 383 kts 275°
2026-05-07 19:45 35.89124 -115.69321 20533 ft 386 kts 274°
2026-05-07 19:46 35.89189 -115.72650 21163 ft 390 kts 274°
2026-05-07 19:46 35.89250 -115.76012 21772 ft 394 kts 274°
2026-05-07 19:46 35.89309 -115.79401 22392 ft 397 kts 274°
2026-05-07 19:46 35.89365 -115.82784 22970 ft 401 kts 274°
2026-05-07 19:47 35.89421 -115.86234 23538 ft 404 kts 274°
2026-05-07 19:47 35.89553 -115.89699 24081 ft 404 kts 281°
2026-05-07 19:47 35.90327 -115.93009 24599 ft 402 kts 297°
2026-05-07 19:47 35.91790 -115.95926 25111 ft 400 kts 311°
2026-05-07 19:48 35.93620 -115.98524 25635 ft 401 kts 315°
2026-05-07 19:48 35.95536 -116.01044 26123 ft 404 kts 317°
2026-05-07 19:48 35.97497 -116.03526 26726 ft 403 kts 317°
2026-05-07 19:48 35.99454 -116.05987 27360 ft 401 kts 317°
2026-05-07 19:49 36.01407 -116.08432 27973 ft 399 kts 318°
2026-05-07 19:49 36.03357 -116.10867 28588 ft 397 kts 318°
2026-05-07 19:49 36.05272 -116.13252 29173 ft 395 kts 318°
2026-05-07 19:49 36.07220 -116.15648 29734 ft 394 kts 319°
2026-05-07 19:50 36.09155 -116.18035 30300 ft 392 kts 319°
2026-05-07 19:50 36.11083 -116.20423 30839 ft 391 kts 319°
2026-05-07 19:50 36.13001 -116.22804 31356 ft 390 kts 319°
2026-05-07 19:50 36.14911 -116.25179 31838 ft 389 kts 319°
2026-05-07 19:51 36.16828 -116.27565 32067 ft 393 kts 319°
2026-05-07 19:51 36.18779 -116.29997 32095 ft 403 kts 319°
2026-05-07 19:51 36.22822 -116.35044 32103 ft 421 kts 318°
2026-05-07 19:52 36.27029 -116.40296 32101 ft 437 kts 318°
2026-05-07 19:52 36.31442 -116.45634 32102 ft 447 kts 320°
2026-05-07 19:53 36.35912 -116.50925 32103 ft 445 kts 319°
2026-05-07 19:53 36.40389 -116.56259 32104 ft 446 kts 319°
2026-05-07 19:54 36.44856 -116.61591 32105 ft 445 kts 319°
2026-05-07 19:54 36.49408 -116.66747 32108 ft 445 kts 321°
2026-05-07 19:55 36.53985 -116.71941 32109 ft 445 kts 320°
2026-05-07 19:55 36.58557 -116.77138 32110 ft 446 kts 320°
2026-05-07 19:56 36.63133 -116.82354 32116 ft 445 kts 320°
2026-05-07 19:56 36.67693 -116.87575 32124 ft 445 kts 320°
2026-05-07 19:57 36.72323 -116.92708 32127 ft 444 kts 324°
2026-05-07 19:57 36.77465 -116.96832 32130 ft 442 kts 333°
2026-05-07 19:58 36.82902 -117.00395 32134 ft 441 kts 335°
2026-05-07 19:58 36.88356 -117.03941 32138 ft 441 kts 334°
2026-05-07 19:59 36.93804 -117.07487 32142 ft 441 kts 334°
2026-05-07 19:59 36.99257 -117.11040 32146 ft 441 kts 334°
2026-05-07 20:00 37.04676 -117.14549 32150 ft 441 kts 334°
2026-05-07 20:00 37.10134 -117.18099 32154 ft 441 kts 334°
2026-05-07 20:01 37.15577 -117.21659 32158 ft 441 kts 334°
2026-05-07 20:01 37.21026 -117.25232 32162 ft 441 kts 334°
2026-05-07 20:02 37.26467 -117.28805 32166 ft 441 kts 334°
2026-05-07 20:02 37.31612 -117.32930 32170 ft 443 kts 324°
2026-05-07 20:03 37.36346 -117.37918 32173 ft 444 kts 321°
2026-05-07 20:03 37.41033 -117.42986 32189 ft 445 kts 321°
2026-05-07 20:04 37.45724 -117.48064 32196 ft 445 kts 319°
2026-05-07 20:04 37.47713 -117.51059 32196 ft 449 kts 305°
2026-05-07 20:04 37.49066 -117.54623 32203 ft 454 kts 291°
2026-05-07 20:05 37.50282 -117.62467 32204 ft 458 kts 280°
2026-05-07 20:05 37.50942 -117.70404 32200 ft 458 kts 278°
2026-05-07 20:06 37.51565 -117.78400 32197 ft 459 kts 278°
2026-05-07 20:06 37.52190 -117.86407 32179 ft 459 kts 278°
2026-05-07 20:07 37.52811 -117.94401 32169 ft 458 kts 278°
2026-05-07 20:07 37.53466 -118.02395 32162 ft 459 kts 278°
2026-05-07 20:08 37.54112 -118.10391 32158 ft 459 kts 278°
2026-05-07 20:08 37.54745 -118.18390 32154 ft 459 kts 278°
2026-05-07 20:09 37.55365 -118.26346 32154 ft 459 kts 278°
2026-05-07 20:10 37.56290 -118.38374 32162 ft 459 kts 278°
2026-05-07 20:10 37.56894 -118.46340 32175 ft 459 kts 278°
2026-05-07 20:11 37.57497 -118.54362 32199 ft 459 kts 278°
2026-05-07 20:11 37.58093 -118.62376 32233 ft 459 kts 278°
2026-05-07 20:12 37.58684 -118.70401 32269 ft 459 kts 277°
2026-05-07 20:12 37.59270 -118.78422 32297 ft 459 kts 277°
2026-05-07 20:13 37.59851 -118.86454 32313 ft 459 kts 277°
2026-05-07 20:13 37.60422 -118.94436 32313 ft 460 kts 277°
2026-05-07 20:14 37.60992 -119.02475 32305 ft 459 kts 277°
2026-05-07 20:14 37.61557 -119.10506 32294 ft 459 kts 277°
2026-05-07 20:15 37.62112 -119.18486 32288 ft 459 kts 277°
2026-05-07 20:15 37.62665 -119.26523 32278 ft 459 kts 277°
2026-05-07 20:16 37.63213 -119.34556 32266 ft 459 kts 277°
2026-05-07 20:16 37.63754 -119.42575 32252 ft 459 kts 276°
2026-05-07 20:17 37.64287 -119.50555 32239 ft 459 kts 276°
2026-05-07 20:17 37.64817 -119.58570 32226 ft 458 kts 276°
2026-05-07 20:18 37.65342 -119.66590 32213 ft 458 kts 276°
2026-05-07 20:18 37.65861 -119.74613 32197 ft 458 kts 276°
2026-05-07 20:19 37.66375 -119.82628 32162 ft 458 kts 276°
2026-05-07 20:19 37.66880 -119.90596 32147 ft 458 kts 276°
2026-05-07 20:19 37.67132 -119.94604 32030 ft 459 kts 276°
2026-05-07 20:20 37.67382 -119.98613 31780 ft 458 kts 276°
2026-05-07 20:20 37.67647 -120.02633 31529 ft 458 kts 276°
2026-05-07 20:20 37.67905 -120.06657 31279 ft 459 kts 276°
2026-05-07 20:20 37.68155 -120.10668 30755 ft 457 kts 276°
2026-05-07 20:21 37.68399 -120.14674 29878 ft 457 kts 276°
2026-05-07 20:21 37.68640 -120.18682 29049 ft 458 kts 276°
2026-05-07 20:21 37.68878 -120.22699 28229 ft 459 kts 276°
2026-05-07 20:21 37.69113 -120.26691 27836 ft 450 kts 276°
2026-05-07 20:22 37.69339 -120.30556 27729 ft 435 kts 276°
2026-05-07 20:22 37.69559 -120.34319 27506 ft 424 kts 276°
2026-05-07 20:22 37.69752 -120.37951 27285 ft 420 kts 274°
2026-05-07 20:22 37.69728 -120.41676 27032 ft 428 kts 268°
2026-05-07 20:23 37.69433 -120.45441 26438 ft 434 kts 264°
2026-05-07 20:23 37.68988 -120.49219 25870 ft 434 kts 262°
2026-05-07 20:23 37.68519 -120.52968 25310 ft 431 kts 263°
2026-05-07 20:23 37.68060 -120.56702 24755 ft 428 kts 263°
2026-05-07 20:24 37.67613 -120.60397 24210 ft 425 kts 263°
2026-05-07 20:24 37.67171 -120.64071 23669 ft 421 kts 263°
2026-05-07 20:24 37.66736 -120.67712 23134 ft 417 kts 263°
2026-05-07 20:24 37.66308 -120.71310 22604 ft 411 kts 263°
2026-05-07 20:25 37.65886 -120.74854 22157 ft 406 kts 263°
2026-05-07 20:25 37.65471 -120.78366 21630 ft 403 kts 263°
2026-05-07 20:25 37.65053 -120.81850 21141 ft 399 kts 263°
2026-05-07 20:25 37.64637 -120.85295 20663 ft 395 kts 262°
2026-05-07 20:26 37.64222 -120.88705 20193 ft 391 kts 262°
2026-05-07 20:26 37.63812 -120.92090 19726 ft 388 kts 262°
2026-05-07 20:26 37.63410 -120.95391 19274 ft 384 kts 262°
2026-05-07 20:26 37.62989 -120.98699 18819 ft 380 kts 262°
2026-05-07 20:27 37.62557 -121.01975 18371 ft 377 kts 262°
2026-05-07 20:27 37.62125 -121.05222 17927 ft 373 kts 262°
2026-05-07 20:27 37.61693 -121.08436 17464 ft 370 kts 262°
2026-05-07 20:27 37.61260 -121.11651 16905 ft 370 kts 261°
2026-05-07 20:28 37.60974 -121.13767 16606 ft 368 kts 261°
2026-05-07 20:28 37.60407 -121.17960 16023 ft 364 kts 261°
2026-05-07 20:28 37.60119 -121.20081 15730 ft 361 kts 261°
2026-05-07 20:28 37.59562 -121.24186 15169 ft 357 kts 261°
2026-05-07 20:29 37.59155 -121.27256 14801 ft 352 kts 261°
2026-05-07 20:29 37.58922 -121.29267 14601 ft 348 kts 262°
2026-05-07 20:29 37.58591 -121.32271 14222 ft 344 kts 262°
2026-05-07 20:29 37.58256 -121.35260 13712 ft 343 kts 262°
2026-05-07 20:30 37.57921 -121.38199 13279 ft 334 kts 262°
2026-05-07 20:30 37.57592 -121.41064 12879 ft 325 kts 262°
2026-05-07 20:30 37.57269 -121.43847 12494 ft 317 kts 261°
2026-05-07 20:30 37.56952 -121.46561 12124 ft 309 kts 261°
2026-05-07 20:31 37.56645 -121.49179 11767 ft 302 kts 261°
2026-05-07 20:31 37.56340 -121.51778 11415 ft 299 kts 261°
2026-05-07 20:31 37.56036 -121.54367 11062 ft 299 kts 261°
2026-05-07 20:31 37.55730 -121.56964 10709 ft 299 kts 261°
2026-05-07 20:32 37.55426 -121.59547 10353 ft 295 kts 261°
2026-05-07 20:32 37.55119 -121.62076 10046 ft 287 kts 259°
2026-05-07 20:32 37.54662 -121.64489 9734 ft 279 kts 254°
2026-05-07 20:32 37.54110 -121.66785 9465 ft 276 kts 253°
2026-05-07 20:33 37.53537 -121.69086 9194 ft 274 kts 253°
2026-05-07 20:33 37.52977 -121.71374 8926 ft 271 kts 253°
2026-05-07 20:33 37.52428 -121.73635 8662 ft 269 kts 253°
2026-05-07 20:33 37.51888 -121.75876 8400 ft 266 kts 253°
2026-05-07 20:34 37.51358 -121.78071 8144 ft 263 kts 253°
2026-05-07 20:34 37.50829 -121.80276 7855 ft 262 kts 253°
2026-05-07 20:34 37.50304 -121.82464 7597 ft 259 kts 253°
2026-05-07 20:34 37.49783 -121.84633 7339 ft 257 kts 253°
2026-05-07 20:35 37.49285 -121.86784 7080 ft 255 kts 257°
2026-05-07 20:35 37.49082 -121.88988 6797 ft 253 kts 270°
2026-05-07 20:35 37.49191 -121.91196 6542 ft 253 kts 275°
2026-05-07 20:35 37.49363 -121.93397 6281 ft 251 kts 276°
2026-05-07 20:36 37.49541 -121.95567 5993 ft 252 kts 276°
2026-05-07 20:36 37.49686 -121.97765 5715 ft 250 kts 274°
2026-05-07 20:36 37.49810 -121.99955 5437 ft 250 kts 274°
2026-05-07 20:36 37.49929 -122.02135 5153 ft 249 kts 274°
2026-05-07 20:37 37.50053 -122.04305 4875 ft 247 kts 274°
2026-05-07 20:37 37.50175 -122.06456 4600 ft 245 kts 274°
2026-05-07 20:37 37.50303 -122.08572 4321 ft 239 kts 277°
2026-05-07 20:37 37.50729 -122.10568 4043 ft 234 kts 294°
2026-05-07 20:38 37.51501 -122.12305 3785 ft 227 kts 300°
2026-05-07 20:38 37.52260 -122.14013 3548 ft 218 kts 298°
2026-05-07 20:38 37.52956 -122.15665 3312 ft 209 kts 298°
2026-05-07 20:38 37.53619 -122.17248 3068 ft 200 kts 298°
2026-05-07 20:39 37.54249 -122.18753 3022 ft 190 kts 298°
2026-05-07 20:39 37.54867 -122.20231 2840 ft 192 kts 298°
2026-05-07 20:39 37.55485 -122.21711 2569 ft 188 kts 298°
2026-05-07 20:39 37.56092 -122.23165 2199 ft 187 kts 298°
2026-05-07 20:40 37.56669 -122.24559 2058 ft 172 kts 298°
2026-05-07 20:40 37.57233 -122.25852 1743 ft 165 kts 301°
2026-05-07 20:40 37.57780 -122.27038 1613 ft 147 kts 302°
2026-05-07 20:40 37.58258 -122.28154 1456 ft 143 kts 300°
2026-05-07 20:41 37.58684 -122.29266 1400 ft 139 kts 298°
2026-05-07 20:41 37.59098 -122.30390 1179 ft 145 kts 298°
2026-05-07 20:41 37.59599 -122.31553 801 ft 156 kts 302°
2026-05-07 20:41 37.60154 -122.32705 541 ft 152 kts 299°
2026-05-07 20:42 37.60609 -122.33850 375 ft 144 kts 296°
2026-05-07 20:42 37.61048 -122.34975 159 ft 139 kts 297°
2026-05-07 20:42 37.61482 -122.36021 56 ft 128 kts 295°
2026-05-07 20:42 37.61879 -122.36957 21 ft 103 kts 292°
2026-05-07 20:43 37.62051 -122.37390 21 ft 22 kts 300°
2026-05-07 20:43 37.62114 -122.37535 21 ft 18 kts 292°
2026-05-07 20:43 37.62129 -122.37690 21 ft 19 kts 239°
2026-05-07 20:43 37.62033 -122.37834 21 ft 24 kts 229°
2026-05-07 20:44 37.61957 -122.37973 21 ft 18 kts 272°
2026-05-07 20:44 37.61993 -122.38099 21 ft 9 kts 286°
2026-05-07 20:44 37.61965 -122.38170 21 ft 8 kts 256°
2026-05-07 20:44 37.61941 -122.38258 21 ft 14 kts 216°
2026-05-07 20:45 37.61889 -122.38318 21 ft 6 kts 257°
2026-05-07 20:45 37.61890 -122.38366 21 ft 2 kts 278°
2026-05-07 20:45 37.61890 -122.38369 21 ft 0 kts 278°